Theta_e
355 354 354 353 353 353 354 353 351 353 355 353 353 354 353 354 356 355 354 354 352 349 348 347 347 348 349 352 352 351 350 351 351 352 352 350 351 352 347 340 336 331 327 326 325 326 327 327 327 327 327 326 326 326 326 328 329 329 330 332 333 332 331 333 337 341 345 344 342 339 332 321 316 318
356 355 355 355 355 354 354 353 352 354 356 354 353 354 356 356 357 357 357 357 355 352 350 349 350 351 350 352 352 351 350 351 351 352 351 351 350 346 341 341 343 338 333 332 329 326 325 324 325 324 324 324 324 324 324 324 325 325 326 327 328 329 329 330 334 338 343 345 343 341 337 328 319 316
355 356 355 356 356 355 356 355 353 354 355 355 354 354 356 358 358 358 358 357 355 354 353 351 352 352 351 351 351 351 352 351 351 352 352 352 349 344 342 345 343 339 339 339 336 334 330 325 324 324 324 325 324 325 325 325 325 325 325 327 327 328 328 329 332 335 339 344 344 342 340 335 326 318
356 356 353 353 353 354 356 356 355 355 356 355 355 354 355 357 357 358 359 357 353 355 356 352 352 353 352 351 350 350 353 352 352 352 352 351 348 346 346 343 341 340 340 340 340 341 337 331 328 325 325 326 327 327 328 328 327 326 326 327 327 329 329 330 331 333 336 341 344 343 341 339 333 324
356 355 351 349 349 349 351 354 356 355 355 355 355 354 354 355 355 357 360 358 352 354 357 354 353 355 353 351 350 351 353 353 352 352 351 349 347 346 345 342 341 341 339 340 342 341 340 338 334 329 327 328 328 330 331 331 330 329 327 326 327 329 331 332 332 332 334 338 343 344 342 340 338 331
353 354 350 348 350 349 350 353 354 354 354 354 353 353 353 354 355 355 358 357 350 352 357 355 353 354 353 352 352 352 353 352 351 350 350 348 345 344 343 342 341 340 340 342 341 339 340 341 337 334 332 330 330 331 332 332 332 332 329 327 326 328 331 333 334 333 332 335 340 343 343 342 340 336
352 354 352 351 353 353 354 355 355 355 355 354 353 353 354 354 354 355 358 358 353 353 357 356 354 354 353 353 353 352 352 350 349 348 348 347 345 344 344 343 341 341 341 341 339 339 341 340 337 338 337 332 331 333 335 335 334 334 332 329 327 328 330 331 333 334 333 333 337 342 343 342 341 339
356 356 355 355 354 354 356 356 355 354 354 355 355 355 355 355 356 356 358 359 356 354 356 356 354 353 352 351 352 351 351 350 348 347 347 347 347 346 345 344 342 341 341 339 339 339 339 339 338 340 338 335 334 335 337 338 336 335 333 331 329 329 329 329 331 334 335 333 334 338 342 343 341 340
356 356 355 355 355 355 355 354 354 354 355 356 356 355 356 357 357 357 357 357 356 354 354 354 352 352 352 351 351 350 350 349 348 347 347 347 347 347 346 345 343 341 340 339 339 339 339 339 341 341 340 341 341 340 339 341 341 339 335 333 331 330 330 329 329 333 336 336 333 335 340 342 342 340
355 355 353 354 355 354 355 354 354 355 355 355 355 355 356 356 356 356 355 354 354 353 354 353 352 351 350 348 348 349 348 348 348 348 348 348 348 347 347 345 344 343 341 339 338 340 341 341 342 343 343 346 347 344 342 345 347 345 341 338 336 333 331 329 329 332 337 337 334 333 336 340 342 341
355 355 354 354 354 354 354 353 353 353 353 353 353 354 355 355 355 355 354 353 352 353 352 351 350 349 347 347 348 348 347 347 348 348 348 347 346 347 347 346 346 344 341 340 340 341 342 342 344 345 346 348 349 347 346 347 349 347 344 342 342 338 333 329 329 332 337 338 335 333 333 336 340 341
354 354 353 352 352 352 353 353 353 352 353 353 353 353 353 354 353 352 351 352 352 351 351 350 349 348 348 348 348 347 346 345 345 345 344 345 345 347 347 345 344 342 341 341 343 342 341 343 346 346 347 349 350 350 348 348 349 348 345 345 343 339 334 331 329 332 337 337 337 334 331 331 335 339
354 353 351 350 349 349 350 352 351 350 350 349 349 350 350 350 349 347 347 351 352 351 352 352 351 349 348 347 345 344 344 343 342 342 343 344 345 345 344 339 336 339 343 345 345 343 341 345 347 347 348 350 350 349 348 348 349 348 347 345 342 338 335 331 329 331 335 336 336 335 332 329 330 335
354 353 352 350 348 348 349 349 348 346 343 340 339 340 341 341 342 342 343 346 350 351 352 351 349 347 345 345 343 343 343 341 340 342 344 345 345 345 345 340 335 338 344 348 349 345 342 345 347 348 350 351 351 349 349 349 349 349 348 346 343 339 336 332 330 331 333 335 335 335 333 329 327 330
353 352 351 351 350 350 350 350 349 345 341 337 335 335 335 334 335 336 337 340 343 345 347 348 347 346 344 344 345 344 342 341 343 344 345 346 347 348 349 349 344 341 344 348 349 346 343 345 349 350 350 351 350 349 348 348 349 349 349 347 345 342 338 334 332 330 331 333 333 334 333 330 327 327
352 352 351 350 349 349 350 352 353 352 347 344 341 339 339 338 337 337 337 337 338 338 341 344 345 346 346 347 347 346 345 344 344 344 345 346 348 350 352 352 350 347 348 349 348 345 343 345 350 350 350 351 350 348 349 350 350 350 349 348 347 345 341 337 333 332 331 331 331 332 333 332 328 326
352 353 353 352 351 349 348 349 351 352 351 349 345 343 343 343 341 342 341 341 341 341 341 342 343 344 347 347 347 345 344 344 344 346 348 349 350 351 351 352 351 349 348 348 348 346 344 347 352 353 353 353 353 351 350 351 350 350 349 349 348 347 344 341 337 335 333 332 331 331 332 333 331 328
351 353 354 353 353 352 351 350 350 351 352 352 349 345 344 345 345 344 345 344 345 345 345 345 344 344 344 345 345 345 347 349 350 351 352 350 350 350 349 349 349 348 347 349 351 351 349 351 354 355 355 355 355 354 354 354 353 352 352 351 350 349 348 347 345 342 339 336 334 333 332 333 333 331
349 351 352 352 353 354 354 354 353 352 353 355 353 349 346 346 346 347 347 347 347 347 347 347 347 347 347 349 350 351 352 352 352 352 350 349 348 348 348 348 348 347 348 352 354 353 351 352 353 353 353 354 354 355 355 356 356 355 356 355 353 351 351 350 349 348 346 343 340 337 334 334 334 334
350 351 351 352 352 353 354 355 354 352 351 351 351 347 344 344 346 348 348 347 347 347 347 347 347 348 349 349 349 348 348 348 348 348 348 348 347 348 348 348 349 350 351 353 354 353 352 352 352 352 352 354 355 356 355 356 357 357 357 357 355 353 353 351 350 350 350 348 346 343 339 337 336 336
349 350 351 352 354 355 355 355 354 352 349 347 346 344 343 344 347 348 346 344 345 346 347 348 348 349 350 349 348 347 346 346 346 347 347 347 347 348 349 350 351 353 353 353 354 353 353 352 352 353 353 354 355 356 355 355 356 357 356 356 355 354 353 353 352 352 351 351 350 348 345 342 340 339
350 351 352 353 354 355 354 353 352 351 349 347 346 345 344 345 348 349 348 346 346 346 348 350 351 353 354 352 350 348 347 346 346 348 349 351 352 352 353 353 354 353 353 354 354 353 353 353 353 354 353 352 353 355 355 355 355 356 357 356 356 355 354 354 355 354 353 352 351 350 349 347 345 342
350 352 354 354 354 353 352 351 350 349 348 348 347 346 346 347 349 350 349 349 348 348 349 351 352 352 352 350 348 347 348 348 349 349 351 353 355 355 354 354 355 355 354 354 353 353 353 354 354 354 353 352 351 352 354 354 354 355 357 357 357 357 355 356 356 356 355 354 352 351 350 350 348 346
350 351 351 351 353 352 350 349 349 350 349 349 348 347 346 347 349 349 349 349 350 349 349 349 349 349 348 348 349 349 350 351 352 352 352 353 354 355 354 353 354 355 354 354 353 352 353 353 354 354 353 353 352 352 353 352 352 353 354 355 356 357 357 357 357 356 355 355 353 352 351 351 350 350
351 352 350 350 351 351 350 350 350 351 350 350 349 349 348 348 348 348 348 348 349 349 349 350 350 349 349 351 352 352 353 354 353 352 353 353 353 353 353 353 353 353 352 353 353 352 352 352 353 353 352 353 353 352 352 351 352 353 354 355 356 357 357 358 357 356 355 355 354 354 353 352 352 352
351 351 350 351 351 350 350 351 351 350 351 351 350 350 350 349 349 349 350 349 350 350 350 351 352 351 351 352 353 353 353 353 352 352 352 353 353 352 352 352 351 351 350 350 351 352 352 352 352 352 352 352 352 351 350 349 351 353 354 354 355 355 356 357 357 356 356 355 355 355 354 354 353 353
350 350 350 351 351 351 351 351 351 351 351 350 349 349 349 349 350 350 349 349 348 348 349 350 352 352 351 352 353 353 353 353 352 351 351 351 351 351 351 351 352 351 350 350 351 352 352 352 352 352 351 350 350 350 348 347 349 352 353 353 353 354 355 355 355 355 356 356 355 355 355 354 354 354
348 348 348 349 349 349 349 349 350 350 349 348 348 348 347 348 348 347 346 347 347 348 348 349 350 350 350 350 351 350 350 350 350 349 349 349 349 349 350 351 352 352 351 350 350 351 351 351 351 350 349 349 349 349 348 348 349 351 353 353 352 352 354 354 354 355 355 355 355 355 356 356 356 356
337 337 339 341 343 345 346 347 346 346 345 345 344 341 339 339 341 342 344 346 347 347 347 347 347 347 347 347 349 349 349 348 348 349 349 348 347 347 348 348 349 349 350 349 350 350 350 350 350 350 350 350 349 348 348 348 349 351 352 352 351 351 353 354 355 355 356 355 355 355 356 356 355 355
323 323 325 327 329 331 334 335 335 335 335 336 337 335 334 337 342 343 345 346 346 346 345 345 345 346 346 347 348 348 347 345 345 345 346 346 345 345 346 347 346 346 346 347 348 350 350 349 350 350 350 349 348 347 347 348 349 350 352 351 350 350 351 352 353 354 355 355 354 353 353 354 354 355
319 318 318 318 320 324 324 324 327 332 335 336 337 338 339 341 344 344 343 343 342 342 343 343 343 343 343 344 344 342 341 342 343 343 343 343 343 344 346 345 344 342 343 346 349 351 350 349 349 349 349 350 349 347 347 348 348 350 352 352 351 352 351 351 352 352 353 354 353 353 353 352 353 355
317 316 318 323 328 332 331 329 332 337 339 338 338 339 339 339 339 341 341 340 340 342 342 339 335 333 333 333 332 331 332 335 336 335 332 332 335 339 342 342 341 342 343 345 348 349 349 349 349 349 349 349 347 345 346 346 347 350 352 353 353 353 351 351 352 354 354 353 353 353 353 353 353 353
314 314 322 332 337 337 336 334 333 335 335 335 334 334 334 332 334 337 338 338 338 337 332 326 324 325 326 326 328 331 333 332 328 323 320 319 322 327 331 336 341 344 345 346 347 347 347 347 346 345 345 346 346 345 345 345 346 348 350 351 352 352 350 351 353 356 355 353 351 350 351 351 351 352
310 312 325 335 336 334 334 334 333 332 332 332 332 331 331 331 332 334 334 333 331 325 321 323 327 327 326 327 331 335 336 334 330 326 324 323 323 324 328 333 337 338 339 338 338 338 339 338 336 336 338 342 343 343 344 346 347 347 348 350 351 351 350 350 351 352 350 347 346 349 350 350 350 351
309 318 330 336 335 333 333 333 332 332 331 331 331 331 331 331 331 331 331 330 326 322 324 327 326 324 326 330 333 333 333 333 333 332 332 332 332 333 334 335 335 335 333 330 328 329 331 330 326 323 325 331 337 339 341 345 347 347 348 350 350 350 350 350 351 350 345 340 339 342 346 346 346 347
313 326 334 334 333 332 331 331 331 330 330 330 330 329 330 330 329 329 329 327 323 322 323 322 321 323 328 330 328 328 329 331 331 331 331 332 332 333 334 334 334 335 333 331 328 325 321 318 320 323 326 331 336 339 341 343 345 347 348 347 346 346 345 345 344 342 338 334 336 340 341 340 338 337
318 329 333 331 331 331 329 329 329 328 327 328 327 327 328 327 327 327 326 325 324 324 323 320 322 327 327 323 322 323 326 326 327 327 327 328 329 330 331 330 330 330 330 328 324 318 313 316 324 331 333 334 336 340 341 337 333 332 332 330 329 329 328 327 327 325 324 330 339 345 346 345 342 339
323 328 330 329 329 329 328 327 327 326 326 326 325 325 325 325 325 325 325 324 325 325 323 323 325 326 323 321 322 323 323 323 322 322 322 324 326 326 325 325 324 324 323 320 316 314 316 323 329 332 334 335 336 337 334 325 317 316 317 316 315 315 315 317 319 318 320 330 341 346 347 348 348 345
327 327 327 326 326 326 326 326 326 325 325 324 324 324 323 323 323 323 324 324 323 322 322 324 325 324 323 323 324 324 324 324 323 322 322 323 324 323 323 323 322 319 316 314 316 319 323 326 329 330 330 329 327 325 320 315 313 313 313 313 314 318 321 326 329 330 331 335 340 338 336 340 344 344
327 327 326 326 325 325 324 324 324 324 323 323 322 322 322 322 322 322 323 322 321 320 321 323 323 323 323 323 323 323 323 323 323 323 323 323 323 323 323 321 320 318 318 320 323 325 326 326 326 324 321 317 315 314 314 314 314 314 316 321 326 329 329 330 332 332 331 331 334 333 329 328 333 339
325 325 326 326 325 324 324 323 323 323 322 322 322 322 321 322 321 321 321 321 320 320 321 322 322 322 322 322 322 322 322 322 322 322 322 322 322 322 321 320 320 321 322 324 324 324 324 323 322 320 318 318 318 319 320 322 323 321 320 321 323 324 325 325 326 329 330 331 335 339 337 332 333 336
324 324 325 325 325 324 324 323 323 322 322 321 321 321 321 320 320 320 320 320 320 320 320 320 320 320 320 320 320 320 320 320 320 320 320 320 320 319 319 319 320 321 322 322 322 322 322 321 321 322 323 324 324 324 325 326 326 325 321 318 318 320 323 323 323 324 325 326 329 332 333 333 336 339
324 324 324 325 325 324 324 323 323 322 321 321 320 320 320 320 319 319 320 320 320 319 319 319 319 319 319 319 319 319 319 319 318 318 318 318 318 318 319 319 320 320 320 321 321 321 321 321 321 322 323 323 324 325 325 325 326 326 325 323 321 319 317 319 321 322 322 322 325 328 330 333 336 338
324 324 324 325 325 324 323 322 322 321 320 319 319 318 318 318 318 318 318 318 319 318 318 318 318 317 318 318 318 317 317 317 316 316 316 317 317 318 319 319 319 320 320 320 320 320 320 321 321 321 322 322 322 323 324 324 325 326 326 324 322 319 318 321 326 328 329 328 329 330 331 332 334 336
322 323 323 323 323 322 322 321 320 319 318 318 318 318 318 318 318 317 317 317 317 317 316 316 316 316 316 316 316 316 315 315 314 314 315 315 316 317 317 318 318 319 319 319 319 319 320 320 320 321 321 321 322 322 323 323 323 323 324 324 324 324 325 326 327 328 328 329 329 329 329 329 330 332
Wind_Speed
6 6 6 6 6 6 6 6 5 6 7 6 5 5 5 5 6 6 8 8 8 9 9 8 11 13 12 13 13 10 9 11 12 13 13 12 13 16 16 15 14 14 14 15 15 15 15 16 16 17 18 19 20 20 20 20 20 20 19 18 18 19 19 18 16 15 16 18 19 19 17 14 11 9
6 6 5 5 6 6 6 6 6 6 6 6 5 5 5 5 5 7 8 9 8 9 9 9 10 12 11 10 11 11 11 13 13 12 12 13 14 15 13 12 15 17 17 17 18 19 19 19 19 20 21 21 21 21 21 21 20 20 19 19 18 19 19 18 16 14 14 16 17 18 18 15 12 9
6 7 6 6 6 6 6 6 6 6 6 6 6 6 6 6 6 7 9 10 10 9 10 10 10 11 10 9 10 11 10 13 14 13 12 13 15 15 13 13 16 18 18 20 22 22 22 22 21 21 21 21 21 21 21 21 21 20 19 19 19 18 19 18 16 14 13 14 15 16 17 16 13 10
6 8 8 7 7 7 7 6 6 7 7 7 7 7 6 6 7 8 8 11 12 10 10 10 10 11 12 11 11 10 10 12 14 14 13 14 15 14 13 15 17 18 19 21 22 24 25 24 23 22 22 22 22 22 23 23 22 21 19 18 18 18 18 18 16 14 12 12 13 14 15 16 14 11
8 9 9 8 8 9 8 7 7 7 7 7 8 7 7 7 7 7 8 11 13 13 11 10 10 11 12 13 12 11 11 12 13 14 14 13 14 13 13 14 17 19 21 20 21 25 25 23 23 23 22 22 22 23 24 24 23 22 20 19 17 17 16 16 16 14 12 11 11 12 13 14 14 12
8 9 9 8 8 8 8 7 7 8 7 8 9 7 7 8 8 8 10 12 14 14 12 11 10 11 11 12 12 12 13 13 14 14 13 13 13 13 13 14 17 21 20 18 22 25 23 23 25 24 22 22 23 23 23 23 22 21 20 18 17 16 15 15 15 14 12 11 10 11 12 13 13 12
8 8 8 8 7 7 7 8 7 7 7 8 8 8 8 9 8 8 10 12 13 13 13 11 11 11 12 12 12 13 13 13 14 14 14 13 13 13 14 14 17 20 20 20 24 23 21 24 26 24 24 26 25 23 22 22 21 20 19 18 17 16 15 14 14 13 12 11 10 9 11 12 12 12
8 9 8 8 7 7 8 8 8 8 8 7 8 7 8 8 8 8 9 10 12 13 13 12 12 13 13 13 13 13 13 13 13 14 14 14 14 14 15 15 16 18 20 22 23 22 22 25 24 23 27 29 27 24 23 21 19 18 18 17 17 16 15 15 14 13 12 11 10 9 9 10 11 11
10 10 9 9 8 8 8 9 8 8 7 7 7 7 7 7 7 8 9 9 11 12 13 14 14 14 13 13 13 13 13 14 13 14 14 15 15 15 15 15 16 17 19 20 21 22 24 22 21 24 28 28 26 25 23 20 18 17 17 16 16 16 16 15 14 13 12 11 10 9 9 9 10 10
11 11 10 10 9 9 9 9 8 8 8 8 8 8 8 8 8 8 9 10 11 12 13 14 14 14 13 14 14 13 13 14 14 15 16 15 15 16 17 18 18 17 17 19 20 21 20 19 21 25 26 25 25 23 21 19 18 18 17 17 17 17 16 15 14 13 11 10 10 9 9 9 9 9
11 11 11 11 10 11 11 10 10 9 9 9 9 9 8 9 9 9 9 10 11 12 13 14 14 14 14 14 15 14 14 15 15 15 16 17 17 18 19 20 19 19 20 22 21 18 18 19 22 24 24 24 23 22 20 18 17 17 19 20 20 19 17 15 14 12 10 9 9 9 9 9 9 9
11 12 11 11 12 12 12 11 11 10 10 9 9 9 9 10 10 11 11 11 12 12 13 13 14 14 15 15 15 15 14 15 15 15 17 18 18 18 19 21 21 21 21 21 19 18 20 22 23 23 24 22 21 21 20 17 15 16 21 23 21 19 17 15 14 12 10 9 9 9 8 8 9 9
11 12 12 12 13 13 13 14 14 12 12 13 12 11 12 13 13 13 13 12 12 13 13 13 14 14 15 15 15 15 15 15 17 17 17 17 17 18 21 24 24 22 21 19 19 21 26 27 26 25 23 21 19 19 18 16 16 18 21 22 19 17 16 15 14 12 10 10 10 9 8 8 8 9
12 12 12 12 13 14 16 18 19 17 17 17 16 15 15 15 15 15 15 14 14 13 14 14 14 15 16 15 15 16 16 17 17 17 16 18 20 21 23 25 25 23 22 21 22 27 31 32 29 26 23 20 19 17 15 16 19 21 21 20 18 17 16 14 14 13 12 11 11 10 9 8 8 8
13 13 13 13 14 15 17 18 18 18 18 17 17 17 17 17 17 18 18 17 17 16 16 16 16 17 17 17 16 17 17 16 16 17 19 21 22 22 23 24 26 26 25 24 27 32 35 34 30 26 23 20 18 17 17 19 21 22 22 20 19 17 15 14 13 13 13 13 12 11 10 10 9 9
14 14 14 13 14 14 14 14 14 15 16 16 16 16 17 18 19 19 19 19 19 19 19 18 18 18 18 17 16 16 16 17 19 21 23 24 24 24 23 24 27 27 26 26 31 36 37 33 28 25 22 19 18 17 18 20 22 24 24 23 20 16 15 14 13 14 14 14 13 12 12 11 10 10
14 14 14 14 14 14 14 14 14 15 16 17 16 16 17 19 19 19 20 20 20 20 20 21 21 20 19 19 19 18 19 21 23 24 25 26 26 27 28 29 31 32 32 33 36 38 36 30 24 23 22 20 19 18 18 20 22 23 25 24 19 14 14 13 13 13 14 15 14 14 13 12 12 11
15 15 15 15 14 14 14 15 16 16 17 17 18 18 18 19 19 19 20 21 21 21 21 22 23 22 22 21 21 21 20 21 22 24 26 29 31 33 34 35 36 36 35 34 32 33 32 27 22 22 23 21 20 20 19 20 22 23 23 21 18 16 16 14 13 13 14 14 15 15 14 14 13 13
18 17 17 16 15 15 15 16 17 18 17 16 18 19 20 20 20 20 21 21 22 22 22 22 23 23 21 19 19 19 20 21 23 25 29 32 34 36 36 37 36 35 32 27 25 28 29 25 22 23 23 21 21 20 20 21 23 23 22 21 21 21 21 18 15 14 14 15 15 15 15 15 15 14
18 18 18 18 17 17 17 17 19 20 20 19 20 22 23 23 21 21 21 21 22 23 23 24 24 23 21 21 22 23 25 26 27 29 32 33 33 34 35 35 34 32 29 23 21 26 28 25 24 24 23 22 22 22 21 20 20 20 20 22 25 25 22 19 16 16 17 16 16 16 16 16 16 16
20 19 19 18 17 16 18 19 20 21 21 22 23 24 24 24 23 22 22 22 22 22 22 23 22 21 23 25 26 27 27 28 29 31 33 32 31 30 31 32 32 31 29 25 23 25 27 26 24 24 24 23 23 23 23 20 18 19 22 24 25 23 22 22 21 21 20 18 18 18 17 17 18 18
20 20 19 20 20 20 20 19 19 20 21 22 22 23 24 24 23 22 22 22 22 21 21 20 17 17 22 26 27 27 28 29 29 30 29 26 24 24 25 26 28 28 27 24 22 23 24 23 22 23 26 26 23 22 21 20 19 20 22 23 24 24 24 25 26 25 22 18 18 19 19 19 19 20
18 18 17 18 20 20 19 20 21 23 23 23 24 24 23 23 22 21 21 22 23 22 22 21 19 21 25 27 29 30 29 28 27 25 24 21 19 22 24 23 23 24 23 22 22 24 24 23 21 22 26 28 27 23 21 22 22 21 20 21 23 25 25 23 24 25 23 20 18 18 19 20 20 21
17 17 16 15 16 17 19 20 21 22 23 23 24 24 23 23 22 22 22 22 22 24 25 26 26 27 28 28 27 27 26 25 24 22 22 22 21 23 25 25 24 25 24 22 23 26 26 24 24 25 25 27 29 28 26 27 26 23 22 21 22 22 21 21 23 24 22 20 18 17 18 20 21 22
18 18 16 14 15 17 20 20 20 20 20 20 20 21 22 23 23 23 24 24 24 25 26 26 26 27 27 25 24 23 22 23 22 22 22 23 23 24 25 25 27 29 29 26 25 28 29 29 30 30 27 26 27 29 30 29 25 23 22 21 20 20 20 20 22 21 20 19 20 20 19 19 19 21
18 18 17 17 17 17 19 20 19 20 20 19 19 19 19 20 21 21 22 22 23 24 24 23 22 23 23 22 21 22 21 21 22 22 22 22 22 23 23 24 26 30 31 29 29 30 32 32 32 32 30 28 27 28 29 27 24 21 20 19 20 21 20 19 20 19 18 19 21 21 20 20 20 20
15 14 14 17 19 18 18 18 18 18 18 18 18 17 17 17 17 17 18 19 20 21 21 20 19 20 21 19 19 20 20 19 19 20 20 20 21 22 22 21 23 26 28 28 27 28 30 30 30 29 28 26 25 26 27 26 23 21 20 21 21 20 20 20 20 18 17 19 20 21 22 22 22 22
10 11 12 16 18 19 19 20 19 18 18 17 17 16 16 15 16 17 17 17 17 18 18 18 18 18 18 17 17 19 19 18 18 18 18 18 18 20 20 20 22 24 25 24 24 23 24 24 23 23 23 22 23 25 27 25 22 20 21 23 22 20 21 22 21 19 19 19 19 20 21 23 24 23
7 9 11 13 15 16 17 18 18 17 17 16 15 13 12 12 12 13 12 11 12 14 16 16 15 15 15 14 15 17 17 16 16 15 15 16 16 18 19 20 21 22 22 21 20 19 19 19 19 20 20 21 23 25 26 26 24 21 21 24 25 23 22 21 20 20 19 19 19 19 19 21 23 24
7 8 9 10 10 11 11 12 11 11 11 10 9 8 9 8 8 8 8 9 10 12 12 12 12 12 13 12 13 15 16 15 15 15 15 15 16 17 18 18 19 19 19 19 18 18 18 18 19 21 21 22 24 26 26 27 27 25 23 24 25 25 23 21 21 21 21 21 21 21 20 21 21 22
9 10 10 10 10 10 9 7 6 8 9 8 7 8 9 8 7 7 9 10 11 12 11 11 12 13 15 16 16 17 16 14 15 16 17 17 17 16 16 18 19 19 18 17 16 17 19 19 19 21 21 20 22 24 24 25 27 27 25 22 22 23 23 22 21 22 22 22 22 22 23 24 22 22
12 11 10 10 10 10 9 8 6 7 7 7 5 5 7 7 7 8 9 9 9 11 12 13 15 17 18 18 18 19 18 16 17 19 20 20 20 18 17 18 18 19 18 17 15 16 17 17 17 20 21 21 23 24 24 24 26 26 25 22 21 22 22 21 21 20 20 22 24 24 26 26 24 23
12 10 8 7 6 6 7 6 5 4 5 6 6 6 8 8 7 7 8 8 10 13 16 17 18 17 17 18 17 17 17 18 20 21 21 19 18 17 17 17 17 18 18 18 17 17 18 18 19 20 22 22 23 23 23 24 25 24 23 23 22 22 22 20 18 18 20 24 26 26 27 26 25 25
11 8 5 4 5 5 5 4 3 3 4 5 6 6 8 9 7 7 7 8 13 16 17 16 15 15 16 16 15 14 15 16 19 20 20 19 18 17 16 16 17 18 19 20 21 21 22 23 24 23 23 22 22 22 22 23 23 23 22 22 22 22 22 21 20 19 21 24 26 27 28 28 27 25
8 6 4 5 6 5 4 3 3 4 4 5 6 7 8 8 7 8 8 12 17 18 15 12 14 15 14 13 12 13 14 15 16 16 16 16 16 15 15 16 17 17 18 20 22 21 22 23 24 25 25 24 23 23 20 19 20 21 20 20 20 20 20 21 21 22 23 24 25 26 28 30 31 29
5 4 5 6 6 5 5 4 4 5 4 6 7 8 8 8 8 10 12 16 17 15 13 14 15 13 11 12 13 13 13 14 14 14 14 14 14 14 14 15 15 16 17 18 19 20 22 24 23 23 23 23 23 22 20 17 17 18 19 21 22 22 22 23 24 27 29 29 28 29 30 31 32 32
4 3 5 6 5 5 5 5 6 6 6 7 8 9 10 10 10 12 14 15 14 12 13 14 13 10 11 13 13 13 13 13 13 13 14 14 14 14 14 15 16 17 17 18 21 22 23 22 19 18 19 20 20 21 21 23 24 24 26 29 30 30 31 32 32 33 33 31 29 28 28 30 32 31
3 3 5 5 5 6 6 6 7 8 7 8 9 10 10 10 11 12 13 12 11 12 12 12 10 11 13 14 13 13 13 14 14 15 14 14 14 14 16 17 18 19 20 22 25 24 21 17 16 15 16 17 18 21 25 31 35 34 31 32 34 35 34 33 32 33 32 29 27 26 27 28 30 30
2 4 6 6 6 7 7 7 8 8 8 8 9 10 11 11 11 12 11 11 13 14 13 11 11 13 13 13 13 13 13 14 15 15 15 15 15 16 17 18 20 23 25 26 26 22 18 15 14 14 16 19 22 26 30 36 40 40 37 34 32 31 29 27 26 28 29 28 28 29 29 30 30 30
5 6 7 7 8 8 8 8 8 8 8 9 9 9 10 11 11 10 11 12 15 15 13 11 12 13 13 13 13 14 14 14 15 15 16 16 16 16 17 20 24 26 26 24 21 19 17 15 16 20 24 27 29 31 32 34 38 40 38 31 24 22 23 25 26 28 30 29 29 30 31 32 33 32
8 9 9 8 8 9 9 9 9 9 8 8 9 9 11 12 12 11 12 14 15 15 13 12 12 13 14 14 14 15 15 16 16 17 17 16 17 18 21 23 24 22 21 20 20 20 20 21 24 28 30 30 29 29 29 29 32 35 35 33 29 26 25 26 26 27 28 28 29 30 31 33 33 32
9 10 11 11 11 10 10 10 11 11 9 8 8 9 11 12 12 12 13 14 14 14 14 14 14 14 14 14 15 16 16 17 17 18 18 19 21 23 25 24 21 20 21 22 24 24 25 26 26 26 26 24 23 23 24 25 28 32 36 39 38 33 29 27 27 27 28 28 29 30 32 32 31 30
11 10 9 10 10 10 11 12 12 12 10 9 9 10 10 11 12 13 13 13 13 14 15 15 15 14 14 15 16 17 17 18 19 20 22 24 25 25 25 23 21 22 23 24 26 27 27 27 25 23 23 23 22 22 25 27 28 30 33 36 39 40 39 37 34 31 29 28 27 27 28 29 30 31
13 12 10 9 8 7 9 11 10 7 6 7 9 10 12 13 12 13 13 13 13 14 15 15 15 15 16 17 18 17 18 19 21 22 24 24 24 24 24 23 23 23 23 24 26 27 27 27 25 24 24 24 24 24 26 27 28 29 31 34 39 43 43 39 33 29 27 26 25 26 27 28 30 32
13 12 11 11 11 9 9 11 11 9 9 11 13 15 17 16 14 12 13 14 15 15 16 16 16 16 17 18 19 19 19 21 22 23 24 24 24 24 24 24 24 25 24 24 25 26 26 26 26 25 25 25 24 24 25 27 29 31 32 34 35 36 34 32 31 31 31 31 29 28 28 28 30 32
Wind_Direction
258 259 258 258 258 265 272 275 279 283 284 282 286 293 293 295 300 300 300 298 294 298 306 309 305 306 312 318 321 323 309 298 304 314 319 326 317 303 309 326 334 337 341 344 345 344 343 342 340 337 336 336 335 335 336 336 337 338 336 336 336 337 342 346 350 352 352 357 1 4 13 25 27 26
250 248 250 255 254 261 270 271 271 278 287 287 278 282 289 288 292 297 299 299 298 299 302 300 305 315 322 320 316 318 314 307 312 318 320 318 308 308 328 343 335 333 337 339 340 339 339 339 338 336 333 332 331 331 332 333 334 336 335 334 333 333 337 341 345 349 350 352 357 1 5 15 27 29
250 246 244 246 248 254 264 267 265 267 275 279 276 276 279 280 283 288 294 298 299 302 303 303 310 310 305 307 311 312 315 312 311 316 317 314 315 328 346 341 326 327 330 331 332 333 335 335 333 333 333 332 333 333 334 335 335 336 336 333 332 332 334 337 340 344 347 348 352 357 360 4 17 29
245 251 246 241 243 247 254 262 265 265 268 270 271 273 274 279 286 287 289 297 302 303 301 304 310 304 296 297 298 303 318 317 313 317 318 316 322 330 335 327 319 321 324 324 325 329 333 332 331 332 334 334 336 337 338 338 336 336 335 334 332 332 333 335 338 339 342 345 347 352 357 358 4 17
236 249 252 247 247 250 250 255 261 264 267 267 269 272 269 268 274 280 284 291 297 300 302 306 307 306 306 305 303 312 321 317 314 318 319 320 324 323 321 319 316 318 320 319 322 328 330 331 331 332 333 335 336 337 337 336 336 335 334 334 333 333 334 335 336 337 337 341 343 346 351 355 356 3
231 244 254 253 252 257 258 258 260 263 264 266 267 268 268 261 260 274 284 286 290 295 301 306 306 307 310 309 311 314 314 314 316 319 319 320 320 316 315 316 313 316 318 318 322 326 326 329 333 332 333 335 334 334 334 334 333 332 332 332 332 332 333 334 336 336 333 334 338 341 344 349 352 354
234 239 249 250 247 250 255 257 259 260 261 264 265 266 273 269 265 278 288 288 290 293 298 304 306 307 308 309 312 311 311 314 315 314 315 315 315 314 313 314 313 315 317 318 320 322 322 328 331 329 329 332 333 335 337 335 332 330 330 331 331 331 331 333 335 335 332 328 330 335 339 341 345 348
233 236 240 243 240 238 241 248 253 257 260 262 262 265 270 269 265 271 276 281 287 292 297 302 304 306 308 311 312 310 310 312 312 312 311 309 310 310 310 312 314 314 314 315 319 319 319 324 325 322 324 330 335 339 340 338 334 330 328 327 328 328 328 329 332 333 332 326 322 326 333 335 337 341
229 234 237 236 237 237 240 246 250 254 256 258 262 265 263 264 267 270 273 279 288 293 297 301 305 309 311 310 309 309 310 311 312 311 308 307 308 308 308 310 311 311 312 314 315 314 316 320 319 317 322 328 333 336 337 339 338 333 330 327 326 326 324 325 328 330 331 327 321 318 322 329 331 333
234 237 237 236 237 237 239 243 244 247 250 254 260 262 261 265 270 274 280 286 289 293 295 299 305 308 307 306 306 307 308 308 308 310 313 315 312 307 307 310 312 314 312 311 314 314 315 316 313 316 322 325 325 328 333 339 339 334 333 332 327 323 322 322 323 325 327 328 322 314 312 318 323 325
236 239 240 241 240 238 239 241 242 246 251 254 257 260 265 270 271 274 278 282 284 286 290 294 297 299 300 302 305 307 308 307 306 309 311 312 309 307 309 312 313 312 310 312 318 319 314 311 312 317 319 317 317 323 332 338 334 327 330 333 328 322 319 319 321 321 323 326 324 314 307 307 312 316
239 241 244 245 247 248 246 243 241 241 244 250 252 253 255 257 262 269 271 273 276 280 285 289 292 296 299 301 305 308 309 309 308 309 307 306 307 309 310 310 310 309 311 314 314 313 313 315 315 316 316 316 318 321 327 328 318 313 321 327 326 323 319 319 320 319 319 324 323 314 304 299 301 306
245 245 248 249 251 253 248 245 249 248 244 246 248 249 251 253 259 265 268 271 276 280 285 287 290 295 297 300 304 306 307 307 309 309 307 305 306 306 305 307 310 312 312 310 307 311 318 320 318 317 319 320 318 317 318 316 307 308 316 321 324 325 322 318 318 317 316 320 319 312 301 290 290 294
247 248 250 251 254 254 250 253 261 264 259 255 255 255 256 258 261 266 269 271 274 277 280 282 286 289 290 293 297 300 303 306 307 308 306 304 304 303 304 307 312 315 313 308 306 311 319 321 320 319 317 314 314 316 313 305 301 305 312 319 324 323 320 316 314 313 312 314 316 311 299 286 280 281
249 252 253 253 254 257 259 263 269 270 265 263 264 265 266 267 268 270 272 274 275 276 275 276 279 280 283 287 290 295 301 302 301 301 301 302 303 303 302 301 305 311 313 309 306 310 315 318 315 312 311 311 314 314 305 298 301 307 314 321 323 321 317 313 309 307 307 308 310 309 300 288 277 271
248 250 253 253 253 255 259 264 269 271 269 267 267 269 272 275 276 277 279 280 281 282 280 278 277 277 280 283 286 291 295 294 296 300 303 304 304 302 299 295 297 304 307 304 303 306 311 313 309 306 308 308 308 306 301 300 304 308 312 317 319 318 318 314 306 303 302 302 304 304 300 291 279 270
246 246 248 250 252 254 254 253 257 263 268 270 270 268 270 275 279 281 282 283 284 284 282 281 282 283 283 283 285 289 291 294 300 305 307 308 306 303 301 297 297 300 301 301 301 303 307 311 306 300 302 304 305 305 301 299 300 303 307 313 315 314 316 317 312 307 302 298 298 299 297 292 282 272
244 244 246 248 250 253 253 253 253 256 260 265 269 271 271 273 275 278 281 282 283 284 283 283 284 287 287 288 291 294 297 300 304 305 305 306 304 302 300 298 298 300 303 304 302 300 305 309 302 297 301 305 306 305 301 299 301 304 308 312 314 312 313 312 309 308 306 302 298 294 293 291 284 275
244 244 245 248 250 252 253 254 254 254 255 258 265 272 274 275 275 278 280 282 285 286 285 284 287 288 290 291 291 292 294 292 292 294 298 300 300 299 299 298 300 303 306 306 298 294 299 303 297 295 299 301 300 301 300 300 302 306 308 311 313 314 315 310 301 297 297 296 295 293 289 287 283 278
247 247 246 247 249 252 253 251 251 254 255 256 260 266 271 275 276 275 276 279 283 284 283 284 285 284 282 281 279 279 280 281 286 293 298 299 300 300 300 299 300 302 304 303 294 290 294 297 295 294 298 300 298 299 299 298 300 304 304 304 307 310 312 310 304 299 295 288 284 285 285 282 280 277
250 250 251 251 250 248 248 246 248 254 258 260 263 265 268 272 273 274 277 280 282 285 285 284 283 280 278 279 279 279 282 286 293 299 301 303 304 303 300 299 299 299 299 299 297 293 294 297 297 295 296 297 296 300 303 303 301 299 296 297 302 308 311 310 309 309 304 292 278 275 275 276 275 272
253 251 248 245 244 244 245 248 252 258 263 266 268 270 271 274 275 276 277 276 275 275 276 278 277 274 276 281 284 287 290 295 298 299 301 305 306 302 298 298 299 301 301 302 300 297 296 297 297 297 297 296 296 298 301 302 299 295 295 298 301 304 306 306 305 306 307 300 287 275 269 268 269 270
264 261 252 244 244 248 255 262 266 268 270 271 271 271 273 275 276 274 272 273 274 273 273 276 277 276 278 283 286 289 292 295 296 294 295 296 296 295 296 298 300 301 303 305 302 299 298 297 296 298 301 302 302 301 299 301 302 297 294 295 295 298 302 301 299 301 301 300 297 286 273 266 265 267
264 268 267 260 255 260 267 270 270 270 271 271 271 270 269 270 271 270 270 273 275 275 276 279 280 281 282 285 287 289 289 292 293 290 287 288 289 291 294 296 295 294 296 298 298 297 295 293 293 298 301 300 301 301 301 302 303 301 298 294 289 293 299 297 294 297 297 296 299 297 286 275 269 268
257 258 263 266 263 264 266 265 264 266 268 269 270 270 270 269 270 272 274 275 276 278 281 284 284 285 286 286 286 283 280 281 285 282 280 283 285 285 287 289 289 289 289 289 290 291 292 292 294 297 298 296 296 299 301 303 305 304 302 297 290 291 295 291 290 294 298 297 296 294 292 287 278 273
263 259 258 262 263 262 261 263 265 266 267 271 275 277 277 277 276 276 277 279 280 283 285 286 286 288 288 287 286 283 278 277 279 279 279 282 283 283 285 287 288 288 290 290 289 289 290 292 294 296 297 298 299 299 301 303 305 303 300 298 297 298 297 290 287 290 294 293 291 291 291 290 287 283
264 264 254 255 259 259 262 269 273 272 272 277 281 281 279 277 278 280 282 285 288 289 289 288 287 288 288 287 285 286 285 282 281 281 281 283 284 285 286 288 287 287 290 293 293 291 292 293 295 297 298 300 299 299 302 305 305 305 304 303 301 299 296 291 288 287 287 288 289 289 288 287 287 289
267 270 262 262 266 266 267 272 275 276 276 278 280 282 282 281 281 282 286 292 295 294 293 292 294 297 299 298 295 293 293 291 289 289 289 287 288 288 287 285 284 284 290 294 295 295 296 297 299 301 301 299 297 298 302 304 303 303 303 302 300 297 295 295 294 289 286 286 287 285 284 286 288 289
283 282 277 275 275 273 272 273 275 277 279 280 281 285 290 296 298 296 298 302 300 297 298 301 305 309 309 305 299 295 295 297 298 298 296 294 293 292 290 287 286 288 295 300 301 301 298 298 301 302 300 298 297 299 303 304 303 301 299 298 298 298 296 297 296 292 289 288 288 287 283 283 284 286
301 302 303 302 296 292 288 285 286 294 300 300 304 313 317 324 334 325 305 295 294 295 299 302 306 306 300 291 287 289 295 303 306 302 301 300 298 298 299 298 298 301 304 306 308 307 301 297 297 296 295 296 297 300 303 302 299 296 296 297 298 297 297 297 296 296 294 292 292 291 286 282 282 283
312 316 319 320 322 323 319 315 327 345 347 346 354 354 338 329 330 315 291 284 290 291 288 287 291 291 285 280 281 284 290 298 298 292 290 292 293 297 302 303 303 306 309 310 311 308 302 298 294 292 292 293 294 298 301 298 296 296 298 301 302 301 302 303 303 302 300 295 293 292 289 286 285 283
313 318 324 331 337 339 335 338 355 359 350 339 329 314 300 296 303 306 300 297 293 281 276 284 294 296 294 294 295 296 296 297 294 290 291 294 292 291 294 298 303 306 307 307 306 303 302 301 297 294 294 295 297 301 302 299 298 299 301 302 302 302 305 308 308 308 304 298 295 293 291 289 288 285
314 321 331 327 318 318 322 331 345 341 324 319 310 299 303 309 310 308 308 299 282 279 290 305 312 314 315 316 317 314 311 310 310 312 316 317 309 301 297 298 303 308 309 308 307 306 305 303 299 298 299 299 300 302 302 302 302 304 306 305 303 304 308 310 306 302 299 300 301 299 295 293 292 290
313 324 334 300 274 281 294 304 321 331 331 334 333 330 332 331 323 319 313 290 287 300 314 320 318 318 319 320 319 314 310 311 316 321 326 328 326 322 313 304 303 306 307 307 308 309 307 303 302 302 301 300 299 299 302 306 309 312 314 311 305 305 307 307 304 302 301 304 307 305 302 300 299 296
309 319 314 282 268 275 283 281 298 317 325 330 332 331 331 328 326 327 311 292 298 314 323 315 310 315 320 319 314 312 312 314 316 320 323 324 324 320 314 309 307 307 306 307 311 313 312 312 314 313 311 310 307 303 304 310 315 318 316 310 304 304 305 303 303 304 304 304 304 302 301 300 300 299
304 303 290 276 268 272 274 278 293 303 306 315 322 324 323 319 317 311 301 300 310 319 315 309 314 320 318 310 308 310 313 314 315 317 318 318 316 313 311 310 307 306 308 310 311 312 313 316 320 320 316 314 311 306 305 308 311 310 306 301 300 301 302 302 302 301 302 302 302 300 299 298 296 297
287 277 279 274 269 274 276 279 291 297 299 306 310 311 312 313 311 306 307 314 322 322 317 319 322 317 309 310 312 314 314 313 314 316 317 317 316 314 311 309 307 307 308 306 307 312 317 320 321 318 312 309 307 305 302 299 296 294 296 300 302 302 302 303 302 301 301 300 297 295 294 294 295 296
289 276 283 280 275 281 285 287 292 296 298 302 302 300 301 303 302 306 315 323 320 315 321 328 320 309 311 316 317 317 317 315 315 318 319 318 316 312 310 310 309 308 308 307 310 316 319 319 317 312 307 305 305 305 302 301 299 298 299 301 302 302 304 305 305 305 305 303 297 294 291 290 291 293
311 271 279 283 282 284 287 288 289 291 293 294 294 295 296 296 296 303 312 311 306 311 322 324 314 313 321 324 322 322 321 320 320 321 321 318 316 315 314 313 311 313 314 315 316 318 318 317 312 302 295 295 297 298 299 299 299 299 301 304 305 306 307 308 306 304 302 300 297 296 294 292 291 291
286 273 278 282 279 279 282 283 283 287 288 286 286 292 295 292 293 302 306 302 306 317 322 318 316 319 322 323 323 321 321 321 320 320 319 317 316 315 313 313 314 317 318 316 313 312 310 306 300 296 297 300 301 303 304 302 301 302 305 308 308 304 301 300 298 295 295 295 295 295 294 294 292 293
279 278 277 276 274 273 274 274 271 272 278 282 284 289 291 286 286 298 306 307 315 324 322 316 317 318 316 319 322 320 319 320 319 318 318 317 314 312 312 313 314 313 309 305 303 302 302 301 302 306 310 311 311 311 309 304 301 304 307 307 304 300 297 296 295 292 291 291 290 288 289 290 291 290
284 282 279 278 276 269 265 267 264 259 261 272 278 284 293 295 295 300 306 309 313 315 312 309 311 311 311 316 317 314 314 316 316 316 315 313 311 311 311 311 309 304 301 301 301 301 303 306 308 310 311 310 308 305 299 294 295 299 304 307 307 305 302 300 298 295 293 290 286 283 284 286 286 284
261 260 265 271 271 264 256 257 257 257 262 273 275 279 294 304 305 304 305 305 305 305 306 307 307 306 309 313 311 310 311 312 312 313 313 313 312 311 310 308 305 302 302 303 302 304 307 308 309 308 305 302 300 297 293 293 294 295 299 303 306 307 308 308 307 304 301 297 292 287 285 284 281 279
243 237 235 235 235 239 244 246 247 253 270 275 276 285 296 299 299 301 304 306 305 305 306 306 305 305 308 308 306 305 306 307 309 312 312 312 312 309 306 304 302 300 300 301 302 305 307 307 308 308 305 302 300 297 294 294 295 295 296 299 303 307 311 312 310 306 301 296 291 288 286 284 280 278
244 239 239 234 225 222 230 239 242 247 257 265 275 285 287 282 279 288 298 301 300 298 298 300 304 306 303 298 298 304 308 309 310 312 311 310 309 307 304 301 299 297 298 299 300 303 305 306 306 306 304 302 301 299 297 296 296 297 297 298 300 304 306 306 305 303 300 296 293 291 288 284 281 278